BEIDOU-3 M16 (C35)

Last updated on Thu Nov 21 2024 00:03:16 GMT+0000 (Coordinated Universal Time)

1 43647U 18078A 24325.02173052 -.00000076 00000+0 00000+0 0 9996 2 43647 54.5951 320.0301 0006639 7.2445 352.7687 1.86232257 41469
UTC large
Height (km)
Speed (km/s)
/
Latitude / Longitude
Inclination (degrees)
Orbital Period (minutes)
Azimuth
Elevation
Range (km)
Doppler Factor

Next 0 passes for location: London (51.5072 / 0.1276)

Sorry there are no passes over London.